Location: McFarlands Corners
(41.4117°N, 81.3382°W)
Time: 07:29:04
(UTC+00:00)

BlueWalker 3 - Pass Details

Date: 21 January 2026
Orbit: 450 x 461 km, 53.2° (Epoch: 11 February)

Event Time Altitude Azimuth Distance (km) Brightness Sun altitude
Rises 00:09:37 0° 226° (SW) 2,444 6.4 -19.1°
Reaches altitude 10° 00:11:44 10° 225° (SW) 1,574 5.2 -19.5°
Maximum altitude 00:15:16 76° 139° (SE) 468 1.6 -20.1°
Enters shadow 00:15:20 75° 127° (SE) 469 1.5 -20.1°
